Location: Les Gen�tes
(46.3104°N, 1.5969°E)
Time: 04:31:44
(UTC+00:00)

Cosmos 1850 Rocket - Pass Details

Date: 01 June 2020
Orbit: 754 x 786 km, 74.0° (Epoch: 07 July)

Event Time Altitude Azimuth Distance (km) Brightness Sun altitude
Rises 20:36:26 0° 338° (NNW) 3,285 8.7 -8.5°
Reaches altitude 10° 20:38:50 10° 338° (NNW) 2,354 7.8 -8.8°
Maximum altitude 20:44:13 89° 70° (ENE) 793 4.1 -9.4°
Enters shadow 20:49:25 11° 159° (SSE) 2,284 5.9 -10.1°
